Regional Weather Roundup
Issued by NWS

Home | Current Version | Previous Version | Graphics & Text | Print | Product List | Glossary Off
Versions: 1 2 3 4 5 6 7 8 9 10 11 12 13 14 15 16 17 18 19 20 21 22 23 24 25 26 27 28 29 30 31 32 33 34 35 36 37 38 39 40 41 42 43 44 45 46 47 48 49 50

000
ASUS43 KMPX 300810
RWRMN
WEATHER ROUNDUP FOR MINNESOTA
NATIONAL WEATHER SERVICE TWIN CITIES/CHANHASSEN MN
300 AM CDT SUN AUG 30 2015


NOTE: "FAIR" INDICATES FEW OR NO CLOUDS BELOW 12,000 FEET WITH NO
SIGNIFICANT WEATHER AND/OR OBSTRUCTIONS TO VISIBILITY. N/A MEANS
CURRENT SKY AND/OR WEATHER CONDITIONS ARE NOT AVAILABLE.

MNZ060>063-068>070-300900-
   Twin Cities Metro

CITY           SKY/WX    TMP DP  RH WIND       PRES   REMARKS
TWIN CITIES    CLOUDY    63  62  97 S6        29.99S FOG
ST PAUL        CLOUDY    62  62 100 SE5       30.00S FOG
CRYSTAL        CLEAR     63  60  90 S6        29.97F
BLAINE         PTCLDY    63  63 100 S5        29.99S FOG
LAKEVILLE      FOG       61  61 100 S3        30.00S VSB 1/2
EDEN PRAIRIE   CLEAR     63  61  93 S7        29.99R
SOUTH ST PAUL  CLEAR     62  60  95 S3        29.99F FOG
LAKE ELMO      MOCLDY    61  61 100 S6        30.01S
$$
MNZ001>005-007-008-013>017-022>024-027-028-300900-
   Northwest Minnesota

CITY           SKY/WX    TMP DP  RH WIND       PRES   REMARKS
BEMIDJI        CLEAR     63  61  96 S6        29.88F
HALLOCK        CLEAR     66  64  94 S12       29.77S
ROSEAU         CLEAR     66  61  82 S9        29.80F
WARROAD        CLEAR     66  63  88 S7        29.81S
THIEF RVR FALL CLEAR    N/A N/A N/A S9        29.82F
CROOKSTON      CLEAR     66  64  94 S12       29.81F
FOSSTON        CLEAR     63  61  94 S8        29.86S
DETROIT LAKES  PTCLDY    64  63  94 S8        29.90F
MOORHEAD       PTCLDY    64  63  94 S13       29.85F
PARK RAPIDS    CLOUDY    64  62  93 S9        29.91F
MAHNOMEN       FAIR      65  63  91 S8        29.86F
$$
MNZ006-009>011-018-025>026-300900-
   North Central Minnesota

CITY           SKY/WX    TMP DP  RH WIND       PRES   REMARKS
BAUDETTE       CLEAR     64  61  90 S6        29.83F
FLAG ISLAND    CLEAR     66  64  94 S6        29.79S
INTL FALLS     CLEAR     63  61  93 VRB3      29.86F
WASKISH        CLEAR     64  63  94 S5        29.86S
BIG FORK       MOCLDY    64  63  94 S10       29.90S
LONGVILLE      MOCLDY    64  63  94 S7        29.92S
GRAND RAPIDS     N/A     63  59  88 S10       29.92F
CRANE LAKE     CLEAR     61  59  94 S2        29.91S
ORR            CLEAR     61  57  88 S2        29.88S
COOK           CLEAR     61  59  94 S3        29.92S
WALKER         CLOUDY    63  62  95 S7        29.90F
$$
MNZ012-019>021-037-300900-
   Northeast Minnesota

CITY           SKY/WX    TMP DP  RH WIND       PRES   REMARKS
DULUTH         PTCLDY    62  60  93 SW8       29.95F
ELY            CLEAR     61  59  94 SW5       29.93S
HIBBING        CLOUDY    60  59  96 CALM      29.94R
EVELETH        PTCLDY    59  59 100 CALM      29.95S
DULUTH HARBOR  CLEAR     63 N/A N/A SW5       29.95F
TWO HARBORS    CLEAR     61  55  82 CALM      29.93F HAZE
SILVER BAY     CLEAR     55  54  94 CALM      29.93F
GRAND MARAIS     N/A     55  53  93 CALM      29.93S
G MARAIS ARPRT CLEAR     59  55  88 S5        29.97F FOG
$$
MNZ029>031-032-039>041-046>048-054>057-064-300900-
   West Central Minnesota

CITY           SKY/WX    TMP DP  RH WIND       PRES   REMARKS
FERGUS FALLS   CLEAR     64  64 100 S9        29.89S
WHEATON        CLEAR     59  57  94 SE9       29.89F
MORRIS         CLEAR     63  61  94 SE9       29.91S FOG
ALEXANDRIA     CLEAR     64  62  93 S9        29.95S
ELBOW LAKE     FAIR      63  62  97 SE9       29.90F
WADENA         CLOUDY    63  61  94 S5        29.91F FOG
GLENWOOD       CLEAR     63  63 100 S12       29.95F
APPLETON       CLEAR     64  61  88 S8        29.91F
BENSON         CLEAR     63  61  94 S7        29.93F
ORTONVILLE     CLEAR     63  59  88 SE6       29.90F
MADISON        CLEAR     61  59  94 SE6       29.92S
WILLMAR        CLOUDY    64  63  94 S5        29.97S FOG
$$
MNZ033>034-036-042>043-049>051-058-059-300900-
   Central Minnesota

CITY           SKY/WX    TMP DP  RH WIND       PRES   REMARKS
ST CLOUD       CLEAR     59  59 100 SE5       29.96F FOG
SAUK CENTRE    CLOUDY    62  61  99 S5        29.95F FOG
PAYNESVILLE    CLOUDY    63  62  98 SE6       29.97S FOG
AITKIN         PTCLDY    64  57  77 S7        29.93F
PINE RIVER     CLOUDY    63  63 100 S5          N/A
BRAINERD       CLOUDY    63  62  97 S12       29.94F
STAPLES        CLOUDY    63  63 100 S6        29.93F
LONG PRAIRIE   CLOUDY    61  61 100 S7        29.95F
LITTLE FALLS   CLOUDY    61  59  94 S6        29.96S FOG
LITCHFIELD     CLEAR     63  63 100 S3        29.97F
BUFFALO        CLEAR     61  59  92 CALM      29.99S
MAPLE LAKE     CLEAR     61  60  97 CALM      29.99R
$$
MNZ037-044-045-052-053-300900-
   East Central Minnesota

CITY           SKY/WX    TMP DP  RH WIND       PRES   REMARKS
PRINCETON      CLEAR     61  59  94 S5        29.98S FOG
MORA           PTCLDY    59  57  94 S3        29.99S FOG
CAMBRIDGE      MOCLDY    63  55  77 S5        29.96F HAZE
RUSH CITY      CLEAR     60  58  96 S3        29.98F
MOOSE LAKE     CLOUDY    59  59 100 CALM      29.95S FOG
HINCKLEY       PTSUNNY   59  59 100 S3        29.97F FOG
CLOQUET        PTCLDY    61  59  94 S5        29.95F FOG
MCGREGOR       CLEAR     61  59  94 S5        29.95S
$$
MNZ071>073-080-081-089-090-097-098-300900-
   Southwest Minnesota

CITY           SKY/WX    TMP DP  RH WIND       PRES   REMARKS
MONTEVIDEO     CLEAR     63  63 100 S7        29.95F
GRANITE FALLS  CLEAR     59  59  99 SE6       29.96F
CANBY          CLEAR     65  60  84 S8        29.93S
MARSHALL       PTCLDY    63  57  82 S13       29.96S
REDWOOD FALLS  CLOUDY    63  62  97 S9        29.97S
OLIVIA         FOG       59  55  88 S7        29.96S VSB 3/4
PIPESTONE      CLOUDY    63  61  94 SW12      30.00S FOG
WINDOM         CLOUDY    61  61 100 S10       30.00F FOG
WORTHINGTON    CLOUDY    61  57  88 SW15      30.01F
JACKSON        CLOUDY    61  61 100 S9G18     30.02S FOG
TRACY          CLOUDY    64  63  95 SW17G26   29.96S FOG
SLAYTON        CLOUDY    61  61 100 S14       30.01S FOG
$$
MNZ065>067-074>077-082>085-091>093-300900-
   South Central Minnesota

CITY           SKY/WX    TMP DP  RH WIND       PRES   REMARKS
MANKATO        CLEAR     59  55  88 S7        30.00S
NEW ULM        CLOUDY    61  61 100 S9        29.99S
ST JAMES       CLOUDY    63  63 100 S12       30.01S
FAIRMONT       CLOUDY    63  57  82 S10       30.01F
GLENCOE        CLEAR     61  61  99 S6        29.98S
FARIBAULT      FOG       61  61 100 S7        30.01F VSB 1
OWATONNA       FOG       63  61  94 S5        30.02S VSB 1/2
WASECA         CLEAR     55  55 100 S5        30.03S FOG
ALBERT LEA     CLOUDY    61  61 100 S3        30.03S FOG
$$
MNZ078>079-086>088-094>096-300900-
   Southeast Minnesota

CITY           SKY/WX    TMP DP  RH WIND       PRES   REMARKS
ROCHESTER      CLEAR     58  57  97 S6        30.04S FOG
RED WING       CLEAR     63  61  94 S7        30.00F
STANTON        CLEAR     61  59  93 CALM      29.99F
DODGE CENTER   PTCLDY    61  57  88 S6        30.02F
WINONA         CLOUDY    59  59 100 CALM      30.03S
AUSTIN         CLEAR     63  61  94 S5        30.03S
PRESTON        FOG       58  56  95 CALM      30.04F VSB 3/4
$$
ABBREVIATIONS USED IN REMARKS
   TC - TEMPERATURES IN CELSIUS
  WCI - WIND CHILL INDEX
   HX - HEAT INDEX
  VSB - VISIBILITY
$$



USA.gov is the U.S. government's official web portal to all federal, state and local government web resources and services.